Location: Kershaw
(34.5481°N, 80.5823°W)
Time: 16:54:31
(UTC+00:00)

Transit 2A - Pass Details

Date: 12 October 2022
Orbit: 598 x 959 km, 66.7° (Epoch: 06 December)

Event Time Altitude Azimuth Distance (km) Brightness Sun altitude
Rises 12:38:27 0° 310° (NW) 3,106 8.6 13.7°
Reaches altitude 10° 12:41:39 10° 288° (WNW) 2,257 7.9 14.3°
Maximum altitude 12:44:33 15° 253° (WSW) 1,981 7.8 14.9°
Drops below altitude 10° 12:47:35 10° 219° (SW) 2,388 8.4 15.5°
Sets 12:51:09 0° 197° (SSW) 3,396 9.4 16.2°
